Orbital Elements at Epoch 2459200.5 (2020-Dec-17.0) TDB
Reference: JPL 25 (heliocentric ecliptic J2000)
Element | Value | Uncertainty (1-sigma) | Units |
e | .1577052731479568 | 3.1136e-08 | |
a | 2.458798189993401 | 9.3626e-09 | au |
q | 2.07103274982479 | 7.7197e-08 | au |
i | 7.279784647185163 | 3.7377e-06 | deg |
node | 191.9593467274785 | 3.4571e-05 | deg |
peri | 189.2585836589559 | 3.8096e-05 | deg |
M | 177.0780044047333 | 1.7898e-05 | deg |
tp | 2458507.800503051832 (2019-Jan-24.30050305) | 6.8088e-05 | TDB |
period | 1408.259708706513 3.86 | 8.0435e-06 2.202e-08 | d yr |
n | .2556346658036961 | 1.4601e-09 | deg/d |
Q | 2.846563630162013 | 1.0839e-08 | au |
|
| | Orbit Determination Parameters
Additional Information
|